Regional Weather Roundup
Issued by NWS Charleston, SC

Current Version | Previous Version | Text Only | Print | Product List | Glossary Off
Versions: 1 2 3 4 5 6 7 8 9 10 11 12 13 14 15 16 17 18 19 20 21 22 23 24 25 26 27 28 29 30 31 32 33 34 35 36 37 38 39 40 41 42 43 44 45 46 47 48 49 50
000 ASUS42 KCHS 242128 RWRCHS REGIONAL WEATHER ROUNDUP NATIONAL WEATHER SERVICE CHARLESTON SC 500 PM EDT WED AUG 24 2016 NOTE: "FAIR" INDICATES FEW OR NO CLOUDS BELOW 12,000 FEET WITH NO SIGNIFICANT WEATHER AND/OR OBSTRUCTIONS TO VISIBILITY. NOT ALL STATIONS ARE QUALITY CONTROLLED. USE DATA WITH CAUTION... ESPECIALLY DEWPOINT OBSERVATIONS. SCZ027-030-031-034>040-042>050-242200- ...SOUTHEAST SOUTH CAROLINA... CITY SKY/WX TMP DP RH WIND PRES REMARKS N CHARLESTON PTSUNNY 87 63 44 E8 30.17F WATERFRONT PRK N/A 86 70 58 E15 30.16F HX 90 MOUNT PLEASANT FAIR 84 66 54 CALM 30.17F JOHNS ISLAND FAIR 84 64 51 E13 30.17F PINOPOLIS N/A 84 64 51 E5 30.11F MONCKS CORNER FAIR 86 59 39 NE7 30.18S SUMMERVILLE FAIR 88 63 42 N5 30.19S BEAUFORT MCAS MOSUNNY 87 67 51 SE12G17 30.17F HX 90 BEAUFORT ARPT FAIR 86 63 45 E13 30.17S HILTON HEAD IS MOSUNNY 90 68 48 NE8 30.18F HX 93 WALTERBORO PTCLDY 90 59 35 E12 30.18F ALLENDALE FAIR 90 61 37 N6 30.16S ...SOUTHERN MIDLANDS AND PEE DEE... CITY SKY/WX TMP DP RH WIND PRES REMARKS GEORGETOWN FAIR 82 64 54 E10 30.19F KINGSTREE FAIR 86 59 39 E3 30.18S ORANGEBURG CLOUDY 88 61 40 NE8 30.18F BARNWELL NOT AVBL AIKEN CLOUDY 86 64 48 NW3 30.23F MANNING FAIR 88 61 40 N3 30.18S COLUMBIA PTSUNNY 89 64 43 SE6 30.17F HX 90 SUMTER PTSUNNY 88 62 41 SE6 30.16F FLORENCE CLOUDY 89 60 37 E6 30.19F MYRTLE BEACH MOSUNNY 90 57 33 N8 30.19F N MYRTLE BEACH MOSUNNY 87 62 43 N9 30.17F $$ GAZ063-065-086>088-099>101-113>116-118-119-134>141-150-242200- ...SOUTHEAST GEORGIA... CITY SKY/WX TMP DP RH WIND PRES REMARKS SAVANNAH ARPT PTSUNNY 89 65 44 E12G22 30.17S HX 91 HUNTER AAF SUNNY 87 72 61 E15G21 30.15F HX 94 FORT STEWART MOSUNNY 88 69 53 E9 30.14F HX 91 STATESBORO SUNNY 92 66 41 NE6 30.17S HX 95 SYLVANIA CLEAR N/A N/A N/A E6 30.18F CLAXTON FAIR 91 65 42 NE9 30.15F HX 93 ...CSRA...CENTRAL AND FAR SOUTHEAST GEORGIA... CITY SKY/WX TMP DP RH WIND PRES REMARKS THOMSON PTSUNNY 86 73 63 MISG 30.25F HX 93 AUGUSTA-BUSH PTSUNNY 89 67 47 N10 30.17F HX 92 AUGUSTA-DANIEL CLOUDY 88 67 49 N7 30.20F HX 91 SWAINSBORO MOCLDY 90 63 40 SE9 30.17F HX 90 VIDALIA MOSUNNY 90 68 48 NE9 30.16S HX 93 EASTMAN MOCLDY 91 49 23 E5 30.19S HAZLEHURST FAIR 91 65 41 CALM 30.15S HX 93 ALMA MOSUNNY 90 67 46 VRB3 30.15F HX 93 WAYCROSS N/A 93 73 51 E12 30.14S HX 101 JESUP FAIR 90 73 58 E14 30.16S HX 98 BAXLEY FAIR 91 72 52 E9 30.14F HX 98 BRUNSWICK MOSUNNY 86 72 62 E17 30.16F HX 92 SAINT SIMONS MOSUNNY 87 69 54 E16G26 30.15F HX 91 $$ SCZ027-028-034-036>038-045-046-048>050-GAZ119-141-242200- ...LAKE AND SUPPLEMENTAL COASTAL OBSERVATIONS... STATION/POSITION TIME TEMP WIND PRES WAVE SWELL AIR SEA DIR/SP/G HT/PER HT/PER/DIR (UTC) (F) (DEG/KT/KT) (MB) (FT/S) (FT/S/D) WINYAH BAY 2045 82 90/ 8 1021.0F LAKE MURRAY 2000 87 30/ 2/ 4 1022.0F ACE BASIN NERRS 2000 89 80/ 3 1022.0F FORT PULASKI 2100 83 86 60/ 17/ 21 1022.1F SAPELO ISLAND 2100 86 60/ 13 1021.0F $$ ANZ835-935-AMZ111-154-330-350-352-354-370-450-454-472-242200- ...C-MAN AND BUOY OBSERVATIONS... STATION/POSITION TIME TEMP WIND PRES WAVE SWELL AIR SEA DIR/SP/G HT/PER HT/PER/DIR (UTC) (F) (DEG/KT/KT) (MB) (FT/S) (FT/S/D) BUOY 41004 2050 82 84 40/ 17/ 19 1021.2F 5/ 8 2/ 90/ 8 BUOY 41008 2050 82 85 70/ 17/ 19 1020.8F 4/ 5 2/ 90/ 8 FOLLY BEACH CMAN 2100 82 80/ 13/ 16 1022.3F CAPERS NEARSHORE 2108 82 84 90/ 12/ 16 1021.6F FRIPP NEARSHORE 2108 83 87 90/ 16/ 21 1021.1F STATION/POSITION TIME TEMP WIND PRES WAVE SWELL AIR SEA DIR/SP/G HT/PER HT/PER/DIR (UTC) (F) (DEG/KT/KT) (MB) (FT/S) (FT/S/D) 5E ST. MARYS GA 2101 84 N/A 4/ 5 FRYING PAN BUOY 2100 80 85 30/ 12/ 16 1021.5F BUOY 41025 2050 81 85 90/ 10/ 12 1022.5F 3/ 5 3/ 50/ 5 CAPE LOOKOUT NC 2100 79 10/ 11/ 13 1021.9F BUOY 41002 2050 82 85 50/ 14/ 17 1019.5F 5/11 3/100/11 BUOY 41010 NOT AVBL ST AUGUSTINE FL 2100 83 85 30/ 16/ 17 1020.8F $$

USA.gov is the U.S. government's official web portal to all federal, state and local government web resources and services.